Saint Bonnet de Bellac- Haute Vienne - France
Donnes mto: vendredi, 27/04/2012
Date Horaire Temp. E. Hum. E. P.atmo. Pluie Vent Direction Direction Ensoleilleme Solaire P. de rose Temp au vent Rafales
27/04/2012 00:00 8,9 C 93 % 1012,3 hPa 0,1 mm 6,1 km/h (2 Bft) S 180 0 min 0 W/m 7,8 C 8,2 C 12,2 km/h (2 Bft)
27/04/2012 00:10 8,9 C 93 % 1012,7 hPa 0,1 mm 4,0 km/h (1 Bft) S-SO 202 0 min 0 W/m 7,8 C 8,9 C 6,8 km/h (2 Bft)
27/04/2012 00:20 8,8 C 93 % 1012,6 hPa 0,1 mm 3,2 km/h (1 Bft) S-SE 157 0 min 0 W/m 7,7 C 8,8 C 7,6 km/h (2 Bft)
27/04/2012 00:30 8,8 C 93 % 1012,3 hPa 0,0 mm 2,5 km/h (1 Bft) S-SE 157 0 min 0 W/m 7,7 C 8,8 C 8,3 km/h (2 Bft)
27/04/2012 00:40 8,8 C 93 % 1012,3 hPa 0,0 mm 3,6 km/h (1 Bft) S-SE 157 0 min 0 W/m 7,7 C 8,8 C 9,7 km/h (2 Bft)
27/04/2012 00:50 8,6 C 93 % 1012,6 hPa 0,1 mm 1,4 km/h (1 Bft) S-SE 157 0 min 0 W/m 7,5 C 8,6 C 4,0 km/h (1 Bft)
27/04/2012 01:00 8,5 C 93 % 1012,8 hPa 0,1 mm 1,8 km/h (1 Bft) S 180 0 min 0 W/m 7,4 C 8,5 C 7,2 km/h (2 Bft)
27/04/2012 01:10 8,4 C 93 % 1012,8 hPa 0,2 mm 2,5 km/h (1 Bft) S 180 0 min 0 W/m 7,3 C 8,4 C 2,5 km/h (1 Bft)
27/04/2012 01:20 8,4 C 93 % 1013,0 hPa 0,1 mm 4,0 km/h (1 Bft) S 180 0 min 0 W/m 7,3 C 8,4 C 6,1 km/h (2 Bft)
27/04/2012 01:30 8,4 C 94 % 1013,1 hPa 0,0 mm 2,5 km/h (1 Bft) S 180 0 min 0 W/m 7,5 C 8,4 C 6,1 km/h (2 Bft)
27/04/2012 01:40 8,4 C 94 % 1012,8 hPa 0,1 mm 4,7 km/h (1 Bft) S 180 0 min 0 W/m 7,5 C 8,0 C 7,9 km/h (2 Bft)
27/04/2012 01:50 8,3 C 93 % 1013,0 hPa 0,1 mm 4,0 km/h (1 Bft) S 180 0 min 0 W/m 7,2 C 8,3 C 7,9 km/h (2 Bft)
27/04/2012 02:00 8,3 C 93 % 1013,2 hPa 0,0 mm 6,1 km/h (2 Bft) S 180 0 min 0 W/m 7,2 C 7,5 C 6,8 km/h (2 Bft)
27/04/2012 02:10 8,2 C 93 % 1013,1 hPa 0,1 mm 4,3 km/h (1 Bft) S 180 0 min 0 W/m 7,1 C 8,2 C 7,9 km/h (2 Bft)
27/04/2012 02:20 8,1 C 93 % 1013,3 hPa 0,0 mm 3,6 km/h (1 Bft) S-SE 157 0 min 0 W/m 7,0 C 8,1 C 7,2 km/h (2 Bft)
27/04/2012 02:30 8,0 C 93 % 1012,9 hPa 0,0 mm 0,0 km/h (0 Bft) S-SE 157 0 min 0 W/m 6,9 C 8,0 C 0,0 km/h (0 Bft)
27/04/2012 02:40 7,9 C 93 % 1012,6 hPa 0,0 mm 0,0 km/h (0 Bft) S-SE 157 0 min 0 W/m 6,8 C 7,9 C 0,0 km/h (0 Bft)
27/04/2012 02:50 7,9 C 93 % 1012,8 hPa 0,0 mm 0,0 km/h (0 Bft) S 180 0 min 0 W/m 6,8 C 7,9 C 0,0 km/h (0 Bft)
27/04/2012 03:02 7,8 C 93 % 1013,4 hPa 0,0 mm 1,1 km/h (1 Bft) S 180 0 min 0 W/m 6,7 C 7,8 C 4,0 km/h (1 Bft)
27/04/2012 03:10 7,8 C 93 % 1013,1 hPa 0,1 mm 2,2 km/h (1 Bft) S-SE 157 0 min 0 W/m 6,7 C 7,8 C 4,3 km/h (1 Bft)
27/04/2012 03:20 7,8 C 93 % 1013,1 hPa 0,0 mm 0,4 km/h (0 Bft) S 180 0 min 0 W/m 6,7 C 7,8 C 2,9 km/h (1 Bft)
27/04/2012 03:30 7,8 C 93 % 1012,7 hPa 0,1 mm 0,0 km/h (0 Bft) SE 135 0 min 0 W/m 6,7 C 7,8 C 0,0 km/h (0 Bft)
27/04/2012 03:40 7,8 C 93 % 1012,7 hPa 0,0 mm 1,4 km/h (1 Bft) SE 135 0 min 0 W/m 6,7 C 7,8 C 4,3 km/h (1 Bft)
27/04/2012 03:50 7,8 C 93 % 1012,7 hPa 0,0 mm 1,8 km/h (1 Bft) E-SE 112 0 min 0 W/m 6,7 C 7,8 C 4,3 km/h (1 Bft)
27/04/2012 04:00 7,8 C 93 % 1013,0 hPa 0,0 mm 0,7 km/h (0 Bft) E-SE 112 0 min 0 W/m 6,7 C 7,8 C 2,9 km/h (1 Bft)
27/04/2012 04:10 7,8 C 93 % 1013,2 hPa 0,0 mm 4,0 km/h (1 Bft) SE 135 0 min 0 W/m 6,7 C 7,8 C 6,8 km/h (2 Bft)
27/04/2012 04:20 7,8 C 93 % 1013,0 hPa 0,1 mm 2,9 km/h (1 Bft) E-SE 112 0 min 0 W/m 6,7 C 7,8 C 4,3 km/h (1 Bft)
27/04/2012 04:30 7,8 C 93 % 1013,1 hPa 0,0 mm 0,0 km/h (0 Bft) E-SE 112 0 min 0 W/m 6,7 C 7,8 C 0,0 km/h (0 Bft)
27/04/2012 04:40 7,8 C 93 % 1012,8 hPa 0,0 mm 0,7 km/h (0 Bft) E 90 0 min 0 W/m 6,7 C 7,8 C 3,6 km/h (1 Bft)
27/04/2012 04:50 7,8 C 93 % 1012,8 hPa 0,1 mm 1,1 km/h (1 Bft) E-SE 112 0 min 0 W/m 6,7 C 7,8 C 2,9 km/h (1 Bft)
27/04/2012 05:00 7,8 C 93 % 1012,9 hPa 0,0 mm 1,4 km/h (1 Bft) E-SE 112 0 min 0 W/m 6,7 C 7,8 C 4,3 km/h (1 Bft)
27/04/2012 05:10 7,8 C 93 % 1012,8 hPa 0,0 mm 0,0 km/h (0 Bft) E 90 0 min 0 W/m 6,7 C 7,8 C 0,0 km/h (0 Bft)
27/04/2012 05:20 7,8 C 93 % 1012,5 hPa 0,0 mm 0,7 km/h (0 Bft) E 90 0 min 0 W/m 6,7 C 7,8 C 4,0 km/h (1 Bft)
27/04/2012 05:30 7,8 C 93 % 1012,5 hPa 0,0 mm 2,2 km/h (1 Bft) E-SE 112 0 min 0 W/m 6,7 C 7,8 C 4,3 km/h (1 Bft)
27/04/2012 05:40 7,8 C 93 % 1012,5 hPa 0,0 mm 2,2 km/h (1 Bft) S-SE 157 0 min 0 W/m 6,7 C 7,8 C 3,6 km/h (1 Bft)
27/04/2012 05:50 7,8 C 93 % 1012,9 hPa 0,2 mm 0,0 km/h (0 Bft) S 180 0 min 0 W/m 6,7 C 7,8 C 0,0 km/h (0 Bft)
27/04/2012 06:00 7,8 C 93 % 1012,8 hPa 0,1 mm 0,0 km/h (0 Bft) SE 135 0 min 0 W/m 6,7 C 7,8 C 0,0 km/h (0 Bft)
27/04/2012 06:10 7,8 C 93 % 1013,0 hPa 0,0 mm 0,4 km/h (0 Bft) SE 135 0 min 0 W/m 6,7 C 7,8 C 3,6 km/h (1 Bft)
27/04/2012 06:20 7,8 C 94 % 1012,7 hPa 0,1 mm 0,7 km/h (0 Bft) SE 135 0 min 0 W/m 6,9 C 7,8 C 2,9 km/h (1 Bft)
27/04/2012 06:30 7,8 C 93 % 1012,8 hPa 0,0 mm 0,0 km/h (0 Bft) SE 135 0 min 0 W/m 6,7 C 7,8 C 0,0 km/h (0 Bft)
27/04/2012 06:40 7,8 C 93 % 1012,9 hPa 0,0 mm 0,0 km/h (0 Bft) SE 135 0 min 0 W/m 6,7 C 7,8 C 0,0 km/h (0 Bft)
27/04/2012 06:50 7,8 C 93 % 1012,7 hPa 0,0 mm 0,0 km/h (0 Bft) E-SE 112 0 min 0 W/m 6,7 C 7,8 C 2,9 km/h (1 Bft)
27/04/2012 07:00 7,8 C 93 % 1012,7 hPa 0,0 mm 0,0 km/h (0 Bft) E-NE 67 2 min 0 W/m 6,7 C 7,8 C 0,0 km/h (0 Bft)
27/04/2012 07:10 7,8 C 94 % 1013,3 hPa 0,0 mm 0,0 km/h (0 Bft) E-NE 67 2 min 0 W/m 6,9 C 7,8 C 0,0 km/h (0 Bft)
27/04/2012 07:20 7,8 C 94 % 1013,2 hPa 0,0 mm 0,0 km/h (0 Bft) E-NE 67 2 min 0 W/m 6,9 C 7,8 C 0,0 km/h (0 Bft)
27/04/2012 07:30 7,8 C 93 % 1013,4 hPa 0,0 mm 0,0 km/h (0 Bft) E-NE 67 2 min 0 W/m 6,7 C 7,8 C 0,0 km/h (0 Bft)
27/04/2012 07:40 7,8 C 93 % 1013,4 hPa 0,0 mm 0,0 km/h (0 Bft) E-NE 67 2 min 0 W/m 6,7 C 7,8 C 0,0 km/h (0 Bft)
27/04/2012 07:50 7,8 C 93 % 1013,3 hPa 0,0 mm 0,0 km/h (0 Bft) E-NE 67 2 min 0 W/m 6,7 C 7,8 C 0,0 km/h (0 Bft)
27/04/2012 08:00 7,9 C 93 % 1013,4 hPa 0,0 mm 0,0 km/h (0 Bft) E-NE 67 2 min 0 W/m 6,8 C 7,9 C 0,0 km/h (0 Bft)
27/04/2012 08:10 7,9 C 94 % 1013,5 hPa 0,0 mm 0,0 km/h (0 Bft) E-NE 67 2 min 0 W/m 7,0 C 7,9 C 0,0 km/h (0 Bft)
27/04/2012 08:20 7,9 C 93 % 1013,6 hPa 0,0 mm 0,0 km/h (0 Bft) E-NE 67 2 min 0 W/m 6,8 C 7,9 C 0,0 km/h (0 Bft)
27/04/2012 08:30 8,0 C 93 % 1013,4 hPa 0,0 mm 0,0 km/h (0 Bft) E-NE 67 2 min 0 W/m 6,9 C 8,0 C 0,0 km/h (0 Bft)
27/04/2012 08:40 8,1 C 93 % 1013,4 hPa 0,0 mm 0,0 km/h (0 Bft) E-NE 67 2 min 0 W/m 7,0 C 8,1 C 0,0 km/h (0 Bft)
27/04/2012 08:50 8,1 C 93 % 1013,4 hPa 0,0 mm 0,0 km/h (0 Bft) E-NE 67 2 min 0 W/m 7,0 C 8,1 C 0,0 km/h (0 Bft)
27/04/2012 09:00 8,2 C 93 % 1013,4 hPa 0,0 mm 0,0 km/h (0 Bft) E-NE 67 2 min 0 W/m 7,1 C 8,2 C 0,0 km/h (0 Bft)
27/04/2012 09:10 8,3 C 93 % 1013,3 hPa 0,0 mm 0,0 km/h (0 Bft) E-NE 67 2 min 0 W/m 7,2 C 8,3 C 0,0 km/h (0 Bft)
27/04/2012 09:20 8,4 C 93 % 1013,0 hPa 0,0 mm 2,5 km/h (1 Bft) E 90 2 min 0 W/m 7,3 C 8,4 C 3,2 km/h (1 Bft)
27/04/2012 09:30 8,5 C 94 % 1013,2 hPa 0,0 mm 0,0 km/h (0 Bft) E 90 2 min 0 W/m 7,6 C 8,5 C 0,0 km/h (0 Bft)
27/04/2012 09:40 8,6 C 94 % 1013,0 hPa 0,0 mm 0,0 km/h (0 Bft) E-NE 67 2 min 0 W/m 7,7 C 8,6 C 0,0 km/h (0 Bft)
27/04/2012 09:50 8,6 C 94 % 1013,1 hPa 0,0 mm 0,0 km/h (0 Bft) E-NE 67 2 min 0 W/m 7,7 C 8,6 C 0,0 km/h (0 Bft)
27/04/2012 10:00 8,6 C 94 % 1013,0 hPa 0,0 mm 0,0 km/h (0 Bft) E-NE 67 2 min 0 W/m 7,7 C 8,6 C 0,0 km/h (0 Bft)
27/04/2012 10:10 8,6 C 94 % 1013,2 hPa 0,0 mm 0,0 km/h (0 Bft) E-NE 67 2 min 0 W/m 7,7 C 8,6 C 0,0 km/h (0 Bft)
27/04/2012 10:20 8,8 C 94 % 1013,2 hPa 0,0 mm 0,0 km/h (0 Bft) E-NE 67 2 min 0 W/m 7,9 C 8,8 C 0,0 km/h (0 Bft)
27/04/2012 10:30 8,9 C 94 % 1013,0 hPa 0,0 mm 0,7 km/h (0 Bft) NE 45 2 min 0 W/m 8,0 C 8,9 C 3,6 km/h (1 Bft)
27/04/2012 10:40 9,0 C 94 % 1013,2 hPa 0,0 mm 0,0 km/h (0 Bft) NE 45 2 min 0 W/m 8,1 C 9,0 C 0,0 km/h (0 Bft)
27/04/2012 10:50 9,1 C 94 % 1013,1 hPa 0,0 mm 1,1 km/h (1 Bft) NE 45 2 min 0 W/m 8,2 C 9,1 C 3,6 km/h (1 Bft)
27/04/2012 11:00 9,3 C 94 % 1013,2 hPa 0,0 mm 0,0 km/h (0 Bft) NE 45 2 min 0 W/m 8,4 C 9,3 C 0,0 km/h (0 Bft)
27/04/2012 11:10 9,4 C 94 % 1012,8 hPa 0,0 mm 1,4 km/h (1 Bft) E 90 2 min 0 W/m 8,5 C 9,4 C 4,3 km/h (1 Bft)
27/04/2012 11:20 9,6 C 94 % 1012,9 hPa 0,0 mm 1,1 km/h (1 Bft) E 90 2 min 0 W/m 8,7 C 9,6 C 1,1 km/h (1 Bft)
27/04/2012 11:30 9,8 C 94 % 1012,8 hPa 0,0 mm 1,1 km/h (1 Bft) N 360 2 min 0 W/m 8,9 C 9,8 C 1,1 km/h (1 Bft)
27/04/2012 11:40 9,9 C 94 % 1012,8 hPa 0,0 mm 1,4 km/h (1 Bft) E 90 2 min 0 W/m 9,0 C 9,9 C 1,4 km/h (1 Bft)
27/04/2012 11:50 10,0 C 94 % 1012,6 hPa 0,0 mm 0,7 km/h (0 Bft) E 90 2 min 0 W/m 9,1 C 10,0 C 3,2 km/h (1 Bft)
27/04/2012 12:00 10,1 C 94 % 1012,7 hPa 0,0 mm 2,2 km/h (1 Bft) E-NE 67 2 min 0 W/m 9,2 C 10,1 C 4,3 km/h (1 Bft)
27/04/2012 12:10 10,2 C 94 % 1012,8 hPa 0,0 mm 4,7 km/h (1 Bft) E-NE 67 2 min 0 W/m 9,3 C 10,2 C 7,9 km/h (2 Bft)
27/04/2012 12:20 10,2 C 94 % 1012,5 hPa 0,0 mm 1,8 km/h (1 Bft) NE 45 2 min 0 W/m 9,3 C 10,2 C 3,6 km/h (1 Bft)
27/04/2012 12:30 10,3 C 94 % 1012,4 hPa 0,0 mm 6,1 km/h (2 Bft) NE 45 2 min 0 W/m 9,4 C 10,3 C 10,8 km/h (2 Bft)
27/04/2012 12:40 10,3 C 94 % 1012,5 hPa 0,0 mm 0,0 km/h (0 Bft) N-NE 22 2 min 0 W/m 9,4 C 10,3 C 0,0 km/h (0 Bft)
27/04/2012 12:50 10,4 C 93 % 1012,4 hPa 0,0 mm 1,1 km/h (1 Bft) NE 45 2 min 0 W/m 9,3 C 10,4 C 1,1 km/h (1 Bft)
27/04/2012 13:00 10,4 C 93 % 1012,5 hPa 0,0 mm 0,0 km/h (0 Bft) E 90 2 min 0 W/m 9,3 C 10,4 C 3,2 km/h (1 Bft)
27/04/2012 13:10 10,4 C 93 % 1012,2 hPa 0,0 mm 2,5 km/h (1 Bft) E-NE 67 2 min 0 W/m 9,3 C 10,4 C 2,5 km/h (1 Bft)
27/04/2012 13:20 10,5 C 93 % 1012,2 hPa 0,0 mm 1,8 km/h (1 Bft) E 90 2 min 0 W/m 9,4 C 10,5 C 4,3 km/h (1 Bft)
27/04/2012 13:30 10,6 C 93 % 1012,1 hPa 0,0 mm 3,2 km/h (1 Bft) E-NE 67 2 min 0 W/m 9,5 C 10,6 C 7,9 km/h (2 Bft)
27/04/2012 13:40 10,6 C 93 % 1012,1 hPa 0,0 mm 0,0 km/h (0 Bft) E-NE 67 2 min 0 W/m 9,5 C 10,6 C 0,0 km/h (0 Bft)
27/04/2012 13:50 10,8 C 93 % 1011,8 hPa 0,0 mm 0,0 km/h (0 Bft) NE 45 2 min 0 W/m 9,7 C 10,8 C 0,0 km/h (0 Bft)
27/04/2012 14:00 10,9 C 93 % 1011,9 hPa 0,0 mm 2,5 km/h (1 Bft) E-NE 67 2 min 0 W/m 9,8 C 10,9 C 4,0 km/h (1 Bft)
27/04/2012 14:10 10,9 C 93 % 1011,8 hPa 0,0 mm 2,2 km/h (1 Bft) E-NE 67 2 min 0 W/m 9,8 C 10,9 C 4,3 km/h (1 Bft)
27/04/2012 14:20 11,1 C 92 % 1011,8 hPa 0,0 mm 1,4 km/h (1 Bft) NE 45 2 min 0 W/m 9,8 C 11,1 C 1,4 km/h (1 Bft)
27/04/2012 14:30 11,1 C 92 % 1011,8 hPa 0,0 mm 2,9 km/h (1 Bft) N-NE 22 2 min 0 W/m 9,8 C 11,1 C 4,3 km/h (1 Bft)
27/04/2012 14:40 11,2 C 92 % 1011,8 hPa 0,0 mm 3,2 km/h (1 Bft) N-NE 22 2 min 0 W/m 9,9 C 11,2 C 7,2 km/h (2 Bft)
27/04/2012 14:50 11,3 C 91 % 1011,9 hPa 0,0 mm 1,1 km/h (1 Bft) NE 45 2 min 0 W/m 9,9 C 11,3 C 1,1 km/h (1 Bft)
27/04/2012 15:00 11,3 C 91 % 1011,7 hPa 0,0 mm 6,5 km/h (2 Bft) E-NE 67 2 min 0 W/m 9,9 C 11,3 C 10,1 km/h (2 Bft)
27/04/2012 15:10 11,3 C 90 % 1011,7 hPa 0,0 mm 3,2 km/h (1 Bft) N-NE 22 2 min 0 W/m 9,7 C 11,3 C 4,0 km/h (1 Bft)
27/04/2012 15:20 11,3 C 90 % 1011,4 hPa 0,0 mm 5,0 km/h (1 Bft) N-NE 22 2 min 0 W/m 9,7 C 11,3 C 6,8 km/h (2 Bft)
27/04/2012 15:30 11,2 C 90 % 1011,3 hPa 0,0 mm 0,4 km/h (0 Bft) NE 45 2 min 0 W/m 9,6 C 11,2 C 2,9 km/h (1 Bft)
27/04/2012 15:40 11,2 C 90 % 1011,3 hPa 0,0 mm 3,6 km/h (1 Bft) NE 45 2 min 0 W/m 9,6 C 11,2 C 5,4 km/h (2 Bft)
27/04/2012 15:50 11,2 C 90 % 1010,9 hPa 0,0 mm 4,3 km/h (1 Bft) NE 45 2 min 0 W/m 9,6 C 11,2 C 4,3 km/h (1 Bft)
27/04/2012 16:00 11,3 C 89 % 1010,9 hPa 0,0 mm 2,2 km/h (1 Bft) NE 45 2 min 0 W/m 9,6 C 11,3 C 6,5 km/h (2 Bft)
27/04/2012 16:10 11,3 C 89 % 1010,9 hPa 0,0 mm 4,3 km/h (1 Bft) NE 45 2 min 0 W/m 9,6 C 11,3 C 6,1 km/h (2 Bft)
27/04/2012 16:20 11,2 C 88 % 1010,7 hPa 0,0 mm 4,0 km/h (1 Bft) NE 45 2 min 0 W/m 9,3 C 11,2 C 7,6 km/h (2 Bft)
27/04/2012 16:30 11,2 C 88 % 1010,6 hPa 0,0 mm 5,8 km/h (2 Bft) N-NE 22 2 min 0 W/m 9,3 C 11,2 C 9,4 km/h (2 Bft)
27/04/2012 16:40 11,1 C 88 % 1010,7 hPa 0,0 mm 2,5 km/h (1 Bft) N-NE 22 2 min 0 W/m 9,2 C 11,1 C 4,3 km/h (1 Bft)
27/04/2012 16:50 11,1 C 88 % 1010,4 hPa 0,0 mm 7,2 km/h (2 Bft) N-NE 22 2 min 0 W/m 9,2 C 11,1 C 12,6 km/h (3 Bft)
27/04/2012 17:00 11,1 C 89 % 1010,2 hPa 0,0 mm 0,4 km/h (0 Bft) N-NO 337 2 min 0 W/m 9,4 C 11,1 C 3,6 km/h (1 Bft)
27/04/2012 17:10 11,1 C 89 % 1010,2 hPa 0,0 mm 4,7 km/h (1 Bft) N-NO 337 2 min 0 W/m 9,4 C 11,1 C 9,7 km/h (2 Bft)
27/04/2012 17:20 11,1 C 89 % 1009,9 hPa 0,0 mm 4,0 km/h (1 Bft) N-NE 22 2 min 0 W/m 9,4 C 11,1 C 4,3 km/h (1 Bft)
27/04/2012 17:30 10,9 C 89 % 1010,0 hPa 0,1 mm 4,7 km/h (1 Bft) N-NE 22 2 min 0 W/m 9,2 C 10,9 C 6,1 km/h (2 Bft)
27/04/2012 17:40 10,9 C 89 % 1010,1 hPa 0,0 mm 6,5 km/h (2 Bft) NE 45 2 min 0 W/m 9,2 C 10,9 C 9,7 km/h (2 Bft)
27/04/2012 17:50 10,9 C 90 % 1010,2 hPa 0,0 mm 8,6 km/h (2 Bft) NE 45 2 min 0 W/m 9,3 C 10,9 C 13,0 km/h (3 Bft)
27/04/2012 18:00 10,8 C 90 % 1009,9 hPa 0,0 mm 6,1 km/h (2 Bft) NE 45 2 min 0 W/m 9,2 C 10,8 C 8,3 km/h (2 Bft)
27/04/2012 18:10 10,8 C 90 % 1010,2 hPa 0,0 mm 6,1 km/h (2 Bft) N-NE 22 2 min 0 W/m 9,2 C 10,8 C 8,6 km/h (2 Bft)
27/04/2012 18:20 10,8 C 90 % 1009,9 hPa 0,0 mm 2,5 km/h (1 Bft) NE 45 2 min 0 W/m 9,2 C 10,8 C 3,6 km/h (1 Bft)
27/04/2012 18:30 10,7 C 90 % 1010,1 hPa 0,1 mm 3,6 km/h (1 Bft) NE 45 2 min 0 W/m 9,1 C 10,7 C 4,3 km/h (1 Bft)
27/04/2012 18:40 10,6 C 90 % 1010,0 hPa 0,0 mm 4,7 km/h (1 Bft) N-NE 22 2 min 0 W/m 9,0 C 10,6 C 6,8 km/h (2 Bft)
27/04/2012 18:50 10,6 C 91 % 1009,5 hPa 0,0 mm 3,2 km/h (1 Bft) N-NE 22 2 min 0 W/m 9,2 C 10,6 C 5,8 km/h (2 Bft)
27/04/2012 19:00 10,6 C 91 % 1009,5 hPa 0,0 mm 5,0 km/h (1 Bft) N-NE 22 2 min 0 W/m 9,2 C 10,6 C 6,5 km/h (2 Bft)
27/04/2012 19:10 10,6 C 91 % 1009,5 hPa 0,0 mm 4,3 km/h (1 Bft) N-NE 22 2 min 0 W/m 9,2 C 10,6 C 7,6 km/h (2 Bft)
27/04/2012 19:20 10,6 C 92 % 1009,4 hPa 0,1 mm 7,6 km/h (2 Bft) NE 45 2 min 0 W/m 9,4 C 10,6 C 11,5 km/h (2 Bft)
27/04/2012 19:30 10,6 C 92 % 1009,5 hPa 0,0 mm 2,9 km/h (1 Bft) N-NE 22 2 min 0 W/m 9,4 C 10,6 C 6,1 km/h (2 Bft)
27/04/2012 19:40 10,6 C 92 % 1009,2 hPa 0,0 mm 3,2 km/h (1 Bft) E-NE 67 2 min 0 W/m 9,4 C 10,6 C 4,3 km/h (1 Bft)
27/04/2012 19:50 10,6 C 92 % 1009,2 hPa 0,0 mm 2,9 km/h (1 Bft) N-NE 22 2 min 0 W/m 9,4 C 10,6 C 5,8 km/h (2 Bft)
27/04/2012 20:00 10,6 C 92 % 1009,2 hPa 0,0 mm 5,4 km/h (2 Bft) N-NE 22 2 min 0 W/m 9,4 C 10,6 C 7,2 km/h (2 Bft)
27/04/2012 20:10 10,6 C 92 % 1009,0 hPa 0,0 mm 3,2 km/h (1 Bft) N-NE 22 2 min 0 W/m 9,4 C 10,6 C 3,2 km/h (1 Bft)
27/04/2012 20:20 10,6 C 92 % 1009,3 hPa 0,0 mm 4,0 km/h (1 Bft) N-NE 22 2 min 0 W/m 9,4 C 10,6 C 7,6 km/h (2 Bft)
27/04/2012 20:30 10,6 C 92 % 1009,2 hPa 0,0 mm 1,4 km/h (1 Bft) NE 45 2 min 0 W/m 9,4 C 10,6 C 6,1 km/h (2 Bft)
27/04/2012 20:40 10,6 C 92 % 1009,1 hPa 0,0 mm 4,0 km/h (1 Bft) N-NE 22 2 min 0 W/m 9,4 C 10,6 C 4,0 km/h (1 Bft)
27/04/2012 20:50 10,6 C 92 % 1009,2 hPa 0,0 mm 5,4 km/h (2 Bft) N-NE 22 0 min 0 W/m 9,4 C 10,6 C 11,2 km/h (2 Bft)
27/04/2012 21:00 10,5 C 92 % 1009,4 hPa 0,0 mm 3,6 km/h (1 Bft) N-NE 22 0 min 0 W/m 9,3 C 10,5 C 9,4 km/h (2 Bft)
27/04/2012 21:10 10,5 C 92 % 1009,1 hPa 0,0 mm 6,5 km/h (2 Bft) N 360 0 min 0 W/m 9,3 C 10,5 C 8,3 km/h (2 Bft)
27/04/2012 21:20 10,4 C 93 % 1009,1 hPa 0,0 mm 5,0 km/h (1 Bft) NE 45 0 min 0 W/m 9,3 C 10,4 C 8,6 km/h (2 Bft)
27/04/2012 21:30 10,4 C 93 % 1009,0 hPa 0,0 mm 3,6 km/h (1 Bft) N-NO 337 0 min 0 W/m 9,3 C 10,4 C 4,3 km/h (1 Bft)
27/04/2012 21:40 10,4 C 93 % 1009,0 hPa 0,0 mm 6,1 km/h (2 Bft) N-NE 22 0 min 0 W/m 9,3 C 10,4 C 11,5 km/h (2 Bft)
27/04/2012 21:50 10,4 C 93 % 1009,0 hPa 0,0 mm 4,7 km/h (1 Bft) N-NE 22 0 min 0 W/m 9,3 C 10,4 C 7,2 km/h (2 Bft)
27/04/2012 22:00 10,4 C 93 % 1009,0 hPa 0,0 mm 3,6 km/h (1 Bft) N-NE 22 0 min 0 W/m 9,3 C 10,4 C 7,6 km/h (2 Bft)
27/04/2012 22:10 10,4 C 93 % 1008,8 hPa 0,0 mm 6,8 km/h (2 Bft) N-NE 22 0 min 0 W/m 9,3 C 10,4 C 6,8 km/h (2 Bft)
27/04/2012 22:20 10,4 C 93 % 1008,7 hPa 0,0 mm 3,6 km/h (1 Bft) N-NE 22 0 min 0 W/m 9,3 C 10,4 C 7,2 km/h (2 Bft)
27/04/2012 22:30 10,4 C 93 % 1008,8 hPa 0,0 mm 3,2 km/h (1 Bft) NE 45 0 min 0 W/m 9,3 C 10,4 C 6,8 km/h (2 Bft)
27/04/2012 22:40 10,4 C 93 % 1008,7 hPa 0,0 mm 3,6 km/h (1 Bft) N-NE 22 0 min 0 W/m 9,3 C 10,4 C 7,2 km/h (2 Bft)
27/04/2012 22:50 10,4 C 93 % 1008,7 hPa 0,0 mm 1,1 km/h (1 Bft) N-NE 22 0 min 0 W/m 9,3 C 10,4 C 4,0 km/h (1 Bft)
27/04/2012 23:00 10,4 C 93 % 1008,7 hPa 0,0 mm 3,2 km/h (1 Bft) N-NE 22 0 min 0 W/m 9,3 C 10,4 C 6,1 km/h (2 Bft)
27/04/2012 23:10 10,4 C 93 % 1008,8 hPa 0,0 mm 0,4 km/h (0 Bft) N-NE 22 0 min 0 W/m 9,3 C 10,4 C 2,9 km/h (1 Bft)
27/04/2012 23:20 10,4 C 93 % 1008,6 hPa 0,0 mm 3,6 km/h (1 Bft) N-NE 22 0 min 0 W/m 9,3 C 10,4 C 4,0 km/h (1 Bft)
27/04/2012 23:30 10,4 C 93 % 1008,6 hPa 0,0 mm 2,9 km/h (1 Bft) N-NE 22 0 min 0 W/m 9,3 C 10,4 C 7,6 km/h (2 Bft)
27/04/2012 23:40 10,4 C 93 % 1008,1 hPa 0,0 mm 0,7 km/h (0 Bft) N-NE 22 0 min 0 W/m 9,3 C 10,4 C 3,2 km/h (1 Bft)
27/04/2012 23:50 10,4 C 93 % 1008,1 hPa 0,0 mm 2,5 km/h (1 Bft) N-NE 22 0 min 0 W/m 9,3 C 10,4 C 6,1 km/h (2 Bft)
_ Min-Heure 07:50 16:50 23:50 - 13:50 - - - - 07:50 02:00 13:50
Minimum _ 7,8 C 88 % 1008,1 hPa - 0,0 km/h (0 Bft) - - - - 6,7 C 7,5 C 0,0 km/h (0 Bft)
_ Max-Heure 16:10 12:40 08:20 05:50 17:50 - - 20:40 23:50 14:40 16:10 17:50
Maximum _ 11,3 C 94 % 1013,6 hPa 0,2 mm 8,6 km/h
NE (2 Bft)
- - 2 min 0 W/m 9,9 C 11,3 C 13,0 km/h
NE (3 Bft)
Moyenne _ 9,5 C 92 % 1011,6 hPa #2,3 mm 2,4 km/h (1 Bft) N-NE - #2:46 h 0 W/m 8,3 C 9,5 C 4,3 km/h (1 Bft)
Saint Bonnet de Bellac- Haute Vienne - France